Weather History for Mosinee, WI

Change the Weather History Date:

Sunday, May 5, 2013

  Actual Average Record
Temperature  
Mean Temperature 56 °F -  
Max Temperature 69 °F 60 °F 93 °F (2014)
Min Temperature 44 °F 39 °F 30 °F (2002)
Degree Days  
Heating Degree Days 8    
Growing Degree Days 6 (Base 50)    
Moisture  
Dew Point 42 °F    
Average Humidity 68    
Maximum Humidity 100    
Minimum Humidity 27    
Precipitation  
Precipitation 0.00 in - - ()
Sea Level Pressure  
Sea Level Pressure 30.09 in    
Wind  
Wind Speed 7 mph (NE)    
Max Wind Speed 10 mph    
Max Gust Speed -    
Visibility 10 miles    
Events      
Averages and records for this station are not official NWS values.
T = Trace of Precipitation, MM = Missing Value Source: NWS Daily Summary

Daily Weather History Graph

Daily Weather History Graph

Search for Another Location

Airport:

Trip Planner

Search our weather history database for the weather conditions in past years. The results will help you decide how hot, cold, wet, or windy it might be!

Date:

Astronomy

May. 05, 2013 Rise Set
Actual Time 5:42 AM CDT 8:08 PM CDT
Civil Twilight 5:09 AM CDT 8:41 PM CDT
Nautical Twilight 4:28 AM CDT 9:22 PM CDT
Astronomical Twilight 3:42 AM CDT 10:09 PM CDT
Moon 3:23 AM CDT (5/5) 3:59 PM CDT (5/5)
Length of Visible Light 15h 32m
Length of Day
14h 26m
Waning Crescent, 18% of the Moon is Illuminated
May 5
Waning Crescent
May 9
New
May 17
First Quarter
May 24
Full
May 31
Last Quarter

Hourly Weather History & Observations

Time (CDT) Temp. Windchill Dew Point Humidity Pressure Visibility Wind Dir Wind Speed Gust Speed Precip Events Conditions
12:15 AM 53.6 °F - 42.8 °F 67% 30.11 in 10.0 mi North 8.1 mph - N/A   Clear
12:35 AM 51.8 °F - 44.6 °F 76% 30.11 in 10.0 mi North 9.2 mph - N/A   Clear
12:55 AM 51.8 °F - 44.6 °F 76% 30.10 in 10.0 mi North 8.1 mph - N/A   Clear
1:15 AM 51.8 °F - 44.6 °F 76% 30.11 in 10.0 mi North 8.1 mph - N/A   Clear
1:35 AM 51.8 °F - 44.6 °F 76% 30.10 in 10.0 mi NE 4.6 mph - N/A   Clear
1:55 AM 51.8 °F - 44.6 °F 76% 30.10 in 10.0 mi NNE 10.4 mph - N/A   Clear
2:15 AM 51.8 °F - 44.6 °F 76% 30.09 in 10.0 mi North 9.2 mph - N/A   Clear
2:35 AM 50.0 °F - 44.6 °F 82% 30.09 in 10.0 mi North 9.2 mph - N/A   Clear
2:55 AM 50.0 °F - 44.6 °F 82% 30.09 in 10.0 mi North 9.2 mph - N/A   Clear
3:15 AM 50.0 °F - 44.6 °F 82% 30.09 in 10.0 mi NNE 8.1 mph - N/A   Clear
3:35 AM 48.2 °F - 44.6 °F 87% 30.09 in 10.0 mi NNE 10.4 mph - N/A   Clear
3:55 AM 46.4 °F 41.9 °F 44.6 °F 93% 30.09 in 10.0 mi NNE 9.2 mph - N/A   Clear
4:15 AM 46.4 °F 43.5 °F 42.8 °F 87% 30.10 in 10.0 mi NE 5.8 mph - N/A   Clear
4:35 AM 44.6 °F 41.4 °F 42.8 °F 93% 30.09 in 10.0 mi NE 5.8 mph - N/A   Clear
4:55 AM 44.6 °F 41.4 °F 42.8 °F 93% 30.09 in 10.0 mi NNE 5.8 mph - N/A   Clear
5:15 AM 44.6 °F 41.4 °F 42.8 °F 93% 30.09 in 10.0 mi North 5.8 mph - N/A   Clear
5:35 AM 44.6 °F 42.2 °F 42.8 °F 93% 30.10 in 10.0 mi NNE 4.6 mph - N/A   Clear
5:45 AM 44.6 °F 42.2 °F 44.6 °F 100% 30.10 in 10.0 mi NNE 4.6 mph - N/A   Clear
6:45 AM 44.6 °F 41.4 °F 44.6 °F 100% 30.11 in 10.0 mi NE 5.8 mph - N/A   Clear
7:45 AM 46.4 °F 42.9 °F 42.8 °F 87% 30.12 in 10.0 mi ENE 6.9 mph - N/A   Clear
8:50 AM 48.2 °F - 42.8 °F 82% 30.12 in 10.0 mi ENE 5.8 mph - N/A   Clear
9:45 AM 51.8 °F - 42.8 °F 71% 30.12 in 10.0 mi ENE 4.6 mph - N/A   Clear
10:50 AM 57.2 °F - 42.8 °F 59% 30.12 in 10.0 mi ENE 3.5 mph - N/A   Clear
11:45 AM 60.8 °F - 42.8 °F 52% 30.12 in 10.0 mi ENE 3.5 mph - N/A   Clear
1:50 PM 68.0 °F - 37.4 °F 33% 30.09 in 10.0 mi SSE 9.2 mph - N/A   Clear
2:45 PM 69.8 °F - 37.4 °F 31% 30.07 in 10.0 mi ESE 5.8 mph - N/A   Clear
3:45 PM 69.8 °F - 37.4 °F 31% 30.09 in 10.0 mi ENE 5.8 mph - N/A   Clear
4:45 PM 69.8 °F - 33.8 °F 27% 30.04 in 10.0 mi Variable 4.6 mph - N/A   Clear
6:55 PM 68.0 °F - 37.4 °F 33% 30.05 in 10.0 mi SE 6.9 mph - N/A   Clear
7:55 PM 64.4 °F - 39.2 °F 40% 30.06 in 10.0 mi SE 5.8 mph - N/A   Clear
8:55 PM 60.8 °F - 39.2 °F 45% 30.07 in 10.0 mi ESE 4.6 mph - N/A   Clear
9:50 PM 59.0 °F - 39.2 °F 48% 30.07 in 10.0 mi East 4.6 mph - N/A   Clear
10:15 PM 55.4 °F - 39.2 °F 54% 30.07 in 10.0 mi East 4.6 mph - N/A   Clear
10:35 PM 55.4 °F - 39.2 °F 54% 30.07 in 10.0 mi East 4.6 mph - N/A   Clear
10:55 PM 55.4 °F - 41.0 °F 58% 30.07 in 10.0 mi East 4.6 mph - N/A   Clear
11:15 PM 53.6 °F - 41.0 °F 62% 30.07 in 10.0 mi East 3.5 mph - N/A   Clear
11:35 PM 53.6 °F - 41.0 °F 62% 30.08 in 10.0 mi East 3.5 mph - N/A   Clear
11:55 PM 53.6 °F - 41.0 °F 62% 30.07 in 10.0 mi East 3.5 mph - N/A   Clear